SCP
-0 0 0 0 0 0 0 0 0 0 0 0 0 0 0 0 0 0 0 -0 0 0 0 0 0 0 0 0 0 0 0 0 0 0 0 0 0 0 0 0 0 0 -0
-0 0 0 0 0 0 0 0 0 0 0 0 0 0 0 0 0 0 0 0 0 0 0 0 0 0 0 0 0 0 0 0 0 0 0 0 0 0 0 0 0 0 0
-0 0 0 0 0 0 0 0 0 0 0 0 0 0 0 0 0 0 0 0 0 0 0 0 0 0 0 0 0 0 0 0 0 0 0 0 0 0 0 0 0 0 0
0 0 0 0 0 0 0 0 0 0 0 0 0 0 0 0 0 0 0 0 0 0 0 0 0 0 0 0 0 0 0 0 0 0 0 0 0 0 0 0 0 0 0
0 0 0 0 0 0 0 0 0 0 0 0 0 0 0 0 0 0 0 0 0 0 0 0 0 0 0 0 0 0 0 0 0 0 0 0 0 0 0 0 0 0 0
0 0 0 0 -0 0 0 0 0 0 0 0 0 0 0 0 0 0 0 0 0 0 0 0 0 0 0 0 0 0 0 0 0 0 0 0 0 0 0 0 0 0 0
0 0 0 0 0 0 0 0 0 0 0 0 0 0 0 0 0 0 0 0 0 0 0 0 0 0 0 0 0 0 0 0 0 0 0 0 0 0 0 0 0 0 0
0 0 0 0 0 0 0 0 0 0 0 0 0 0 0 0 0 0 0 0 0 0 0 0 0 0 0 0 0 0 0 0 0 0 0 0 0 0 0 0 0 0 0
0 0 0 0 0 0 0 0 0 0 0 0 0 0 0 0 0 0 0 0 0 0 0 0 0 0 0 0 0 0 0 0 0 0 0 0 0 0 0 0 0 0 0
0 0 0 0 0 0 0 -0 0 0 0 0 0 0 0 0 0 0 0 0 0 0 0 0 0 0 0 0 0 0 0 0 0 0 0 0 0 0 0 0 0 0 0
0 0 0 0 0 0 0 0 0 0 0 0 0 0 0 0 0 0 0 0 0 0 0 0 0 0 0 0 0 0 0 0 0 0 0 0 0 0 0 0 0 0 0
0 0 0 0 0 0 0 0 0 0 0 0 0 0 0 0 0 0 0 0 0 0 0 0 0 0 0 0 0 0 0 0 0 0 0 0 0 0 0 0 0 0 0
0 0 0 0 0 0 0 0 0 0 0 0 0 0 0 0 0 0 0 0 0 0 0 0 0 0 0 0 0 0 0 0 0 0 0 0 0 0 0 0 0 0 0
0 0 0 0 0 0 0 0 0 0 0 0 0 0 0 0 0 0 0 0 0 0 0 0 0 0 0 0 0 0 0 0 0 0 0 0 0 0 0 0 0 0 0
0 0 0 0 0 0 0 0 0 0 0 0 0 0 0 0 0 0 0 0 0 0 0 0 0 0 0 0 0 0 0 0 0 0 0 0 0 0 0 0 0 0 0
0 0 0 0 0 0 0 0 0 0 0 0 0 0 0 0 0 0 0 0 0 0 0 0 0 0 0 0 0 0 0 0 0 0 0 0 0 0 0 0 0 0 0
0 0 0 0 0 0 0 0 0 0 0 0 0 0 0 0 0 0 0 0 0 0 0 0 0 0 0 0 0 0 0 0 0 0 0 0 0 0 0 0 0 0 0
0 0 0 0 0 0 0 0 0 0 0 0 0 0 0 0 0 0 0 0 0 0 0 0 0 0 0 0 0 0 0 0 0 0 0 0 0 0 0 0 0 0 0
0 0 0 0 0 0 0 0 0 0 0 0 0 0 0 0 0 0 0 0 0 0 0 0 0 0 0 0 0 0 0 0 0 0 0 0 0 0 0 0 0 0 0
0 0 0 0 0 0 0 0 0 0 0 0 0 0 0 0 0 0 0 0 0 0 0 0 0 0 0 0 0 0 0 0 0 0 0 0 0 0 0 0 0 0 0
0 0 0 0 0 0 0 0 0 0 0 0 0 0 0 0 0 0 0 0 0 0 0 0 0 0 0 0 0 0 0 0 0 0 0 0 0 0 0 0 0 0 0
0 0 0 0 0 0 0 0 0 0 0 0 0 0 0 0 0 0 0 0 0 0 0 0 0 0 0 0 0 0 0 0 0 0 0 0 0 0 0 0 0 0 0
0 0 0 0 0 0 0 0 0 0 0 0 0 0 0 0 0 0 0 0 0 0 0 0 0 0 0 0 0 0 0 0 0 0 0 0 0 0 0 0 0 0 0
0 0 0 0 0 0 0 0 0 0 0 0 0 0 0 0 0 0 0 0 0 0 0 0 0 0 0 0 0 0 0 0 0 0 0 0 0 0 0 0 0 0 0
0 0 0 0 0 0 0 0 0 0 0 0 0 0 0 0 0 0 0 0 0 0 0 0 0 0 0 0 0 0 0 0 0 0 0 0 0 0 0 0 0 0 0
0 0 0 0 0 0 0 0 0 0 0 0 0 0 0 0 0 0 0 0 0 0 0 0 0 0 0 0 0 0 0 0 0 0 0 0 0 0 0 0 0 0 0
Wind_Speed_500mb
40 33 22 24 17 17 13 16 16 16 17 17 18 20 18 17 14 11 7 5 4 8 7 6 10 14 20 27 23 23 20 25 21 19 17 18 15 14 12 12 13 16 17
31 24 21 23 22 19 19 18 19 21 20 21 23 23 21 21 18 15 11 11 9 18 17 18 15 18 15 13 24 32 31 28 30 29 26 22 21 15 16 15 14 16 17
24 23 22 22 22 23 22 20 22 25 25 24 26 26 26 23 22 20 18 18 15 16 21 25 19 21 23 17 17 27 33 32 32 33 30 23 23 18 16 17 15 14 14
23 14 17 21 24 29 18 21 21 25 26 27 27 28 27 24 25 24 22 19 28 21 21 21 29 35 29 25 23 21 25 27 28 29 30 27 22 22 18 16 16 16 15
25 15 6 21 24 20 23 27 29 29 30 32 31 29 30 28 27 28 27 25 25 39 31 32 31 28 40 35 28 22 26 29 31 30 28 26 24 23 20 18 16 15 14
22 21 11 14 22 21 19 21 27 30 35 38 34 35 38 32 30 32 35 33 32 34 48 42 35 34 30 42 34 29 28 34 33 31 28 26 24 23 21 20 18 18 19
21 20 21 20 16 27 30 25 25 29 34 37 40 39 38 42 38 38 37 38 39 36 39 48 51 39 39 43 43 39 35 37 34 30 28 30 25 23 23 23 22 22 21
26 21 21 21 23 24 28 33 32 34 32 36 41 44 45 47 47 48 47 43 43 42 40 43 46 45 44 41 45 47 45 43 42 38 33 32 30 26 25 26 25 25 24
24 26 23 21 22 21 24 26 29 35 35 39 42 44 48 52 54 52 55 53 48 47 45 40 42 41 47 44 49 52 52 51 49 46 41 38 34 31 30 29 28 28 28
18 20 25 26 27 28 29 30 29 29 33 39 47 50 49 52 56 58 62 62 58 53 53 48 44 48 53 51 50 53 54 56 56 55 50 45 40 35 33 33 30 30 30
32 29 22 21 27 33 37 38 37 38 39 40 44 38 53 58 59 61 66 70 67 62 65 57 50 49 54 56 54 56 56 60 61 61 58 51 46 43 40 37 34 32 31
35 36 36 33 29 27 28 35 41 44 43 44 45 46 43 37 50 65 68 73 74 74 72 67 58 56 55 60 62 60 65 63 65 64 63 59 55 49 45 41 39 36 35
36 35 34 35 36 34 33 33 33 36 43 46 48 50 53 48 52 48 73 72 78 82 84 78 73 69 66 66 66 68 69 68 69 68 68 64 63 56 51 48 44 41 41
31 35 35 34 35 37 39 41 42 41 40 41 46 48 52 56 53 49 48 59 85 84 92 92 86 79 80 72 71 69 70 73 73 71 70 68 67 64 58 53 48 46 46
32 34 37 40 41 39 38 37 39 42 45 47 47 48 51 54 56 57 59 48 53 85 96 101 98 91 86 83 77 75 71 76 76 75 75 72 71 69 64 59 55 51 50
33 37 39 43 46 45 45 46 47 48 49 51 52 53 55 56 58 59 58 60 55 39 48 81 100 101 97 93 89 80 76 75 79 77 78 76 76 75 70 65 61 55 54
32 37 39 42 47 50 52 53 50 50 53 53 54 58 55 57 58 57 60 53 59 55 46 55 64 98 99 104 98 94 85 80 81 81 81 80 78 80 77 71 67 63 59
33 38 37 40 46 52 54 56 58 58 58 59 60 58 59 57 56 60 61 58 54 57 68 55 48 55 91 105 111 103 97 92 86 87 87 86 84 82 81 78 72 67 63
36 42 44 45 52 57 56 58 61 64 65 64 65 64 58 60 62 59 59 60 57 57 61 68 73 50 49 91 115 118 108 105 96 89 91 91 89 85 84 79 75 71 68
39 43 49 51 54 59 60 62 65 69 69 70 72 73 65 61 60 63 62 59 58 58 55 54 65 82 59 46 33 83 115 117 106 97 95 90 93 92 87 83 78 77 74
40 45 53 52 57 60 64 70 76 80 81 82 81 77 77 71 57 56 61 62 58 59 57 50 51 51 78 74 60 58 80 117 119 105 95 95 93 93 92 91 88 85 81
41 44 51 53 56 60 63 69 76 83 85 86 89 89 78 66 60 59 60 63 63 62 61 56 47 45 50 68 81 49 43 66 98 113 103 98 96 89 91 91 90 87 82
38 45 52 57 58 59 63 71 78 82 87 91 90 87 80 69 65 64 62 61 62 60 62 59 51 53 61 55 64 54 19 16 37 81 112 106 101 94 89 89 88 85 81
37 45 54 56 57 58 65 73 77 84 93 87 89 89 82 72 64 66 67 65 60 60 60 60 56 53 48 55 54 60 82 101 60 22 69 109 112 101 91 88 87 85 81
39 50 54 55 55 60 67 71 78 84 84 88 86 88 84 79 74 68 65 65 65 60 60 59 59 55 53 62 62 59 60 74 94 74 51 79 107 107 96 89 87 84 80
44 52 53 57 59 63 68 72 75 80 84 88 90 89 88 85 81 75 70 67 64 60 58 61 60 61 63 63 64 64 67 56 68 82 63 64 93 110 105 97 96 89 82
Wind_Direction_500mb
353 354 339 342 302 280 266 259 263 251 257 263 274 287 289 291 283 260 232 283 292 243 279 204 206 201 221 214 218 223 216 211 210 219 225 220 225 184 165 151 142 140 131
345 7 8 357 355 306 283 269 272 271 264 271 277 282 285 287 280 268 226 213 238 244 245 198 218 200 223 224 219 240 232 230 229 240 232 230 211 184 168 159 152 143 143
5 14 6 356 341 328 291 275 269 271 280 280 285 283 282 280 276 269 255 214 200 220 208 230 222 236 232 237 236 238 234 230 230 236 234 234 195 176 168 173 166 159 158
355 12 343 339 343 351 310 287 275 274 279 282 286 285 279 286 279 269 264 240 208 221 222 231 248 251 238 230 240 253 224 217 223 213 212 204 190 180 187 184 183 180 181
342 341 349 314 327 335 335 336 300 284 279 283 287 282 274 286 283 278 276 263 235 215 226 241 245 251 231 225 236 241 217 209 205 192 192 191 192 192 203 203 202 200 195
333 330 302 259 275 307 312 313 312 310 296 285 281 282 271 276 279 280 283 272 265 244 230 230 247 251 242 221 221 228 212 206 208 202 203 199 200 202 212 216 213 211 210
310 307 309 296 260 264 270 277 291 292 296 290 282 278 276 272 277 274 280 277 273 267 249 238 243 244 255 223 218 221 216 215 217 216 211 210 209 211 220 224 222 219 217
296 287 276 288 280 272 268 269 269 276 281 287 286 280 274 270 273 274 274 274 275 273 268 258 231 236 245 230 223 218 220 221 224 226 222 219 217 217 226 231 228 228 225
292 278 276 273 277 281 277 276 274 272 270 275 276 275 275 274 272 269 268 270 270 273 273 266 244 234 243 244 223 219 220 224 228 230 231 230 228 221 229 235 232 232 231
329 300 285 282 282 286 290 289 293 292 274 271 276 265 265 267 270 268 265 261 264 269 271 269 257 237 242 247 231 224 222 223 226 227 233 234 233 230 230 238 235 234 237
34 25 4 327 301 293 293 295 294 291 288 295 284 285 267 264 266 266 264 261 260 261 266 264 258 255 239 242 246 229 226 225 226 227 229 232 234 233 232 232 235 234 235
21 17 14 15 10 354 328 304 297 294 294 295 295 296 283 277 279 269 265 262 262 260 259 262 256 256 247 242 240 241 229 228 229 229 230 233 236 235 234 232 233 233 232
15 16 12 8 4 359 353 345 333 312 299 295 294 293 294 294 287 294 277 259 259 258 258 254 256 258 254 255 251 242 235 231 232 231 232 232 234 236 236 234 233 235 232
4 3 4 2 359 356 354 351 346 337 331 316 304 302 296 293 296 290 277 279 257 256 257 254 252 247 254 257 262 261 245 236 235 234 233 232 233 234 234 236 232 235 235
352 352 353 353 351 348 346 342 340 339 336 331 323 314 305 297 296 291 281 291 266 262 259 256 254 253 250 251 255 259 257 244 239 236 236 234 235 235 233 234 235 234 237
342 342 342 344 343 343 342 338 334 332 333 331 325 318 312 306 299 294 290 287 281 252 250 251 256 256 251 249 252 252 257 251 244 240 239 237 236 236 234 233 234 233 236
335 332 333 336 338 336 335 333 331 328 326 324 323 321 316 304 302 298 294 287 276 277 268 252 247 256 261 250 250 249 251 253 250 245 241 239 237 237 235 233 233 233 235
331 330 328 332 339 336 330 329 328 327 325 322 320 316 314 309 298 295 295 292 286 280 274 273 281 261 251 260 253 252 249 249 249 249 245 241 238 237 236 235 233 232 234
336 335 331 324 329 332 328 326 325 323 323 322 322 321 316 311 304 298 294 292 292 288 284 274 272 284 255 252 253 252 251 249 247 247 247 243 239 237 238 236 234 232 233
336 334 333 325 325 326 325 323 320 320 321 322 322 321 318 314 305 299 296 296 294 294 286 284 278 262 283 246 257 249 252 251 247 246 245 245 243 239 237 238 236 234 234
328 329 328 323 324 323 323 322 321 323 323 322 321 320 319 317 308 299 296 295 295 295 295 291 289 279 257 264 286 271 247 248 248 243 245 243 241 240 239 239 238 237 237
318 322 324 322 317 319 320 318 319 319 319 318 321 322 322 318 312 305 303 301 296 293 291 291 290 281 275 255 260 273 258 232 239 242 239 240 240 240 239 240 240 239 237
311 313 321 322 316 317 315 316 316 316 317 320 320 318 317 314 309 306 303 299 297 291 288 287 283 275 281 271 262 254 282 249 239 239 238 236 237 237 238 237 238 239 237
309 314 319 320 317 317 316 316 317 316 316 316 314 314 313 312 309 307 307 304 298 293 287 284 281 277 271 273 276 261 256 254 272 293 236 234 232 234 235 235 234 235 234
308 317 318 319 317 316 316 317 317 314 313 312 312 311 310 309 307 305 304 303 301 296 289 283 282 274 261 260 261 262 257 255 254 257 267 228 226 228 230 234 233 231 228
311 314 316 318 319 318 318 319 318 315 315 313 313 309 307 306 306 305 305 302 302 296 285 282 281 276 268 263 259 261 259 253 253 243 258 231 221 220 222 226 230 229 226
Wind_Speed_850mb
40 33 22 24 17 17 13 16 16 16 17 17 18 20 18 17 14 11 7 5 4 8 7 6 10 14 20 27 23 23 20 25 21 19 17 18 15 14 12 12 13 16 17
31 24 21 23 22 19 19 18 19 21 20 21 23 23 21 21 18 15 11 11 9 18 17 18 15 18 15 13 24 32 31 28 30 29 26 22 21 15 16 15 14 16 17
24 23 22 22 22 23 22 20 22 25 25 24 26 26 26 23 22 20 18 18 15 16 21 25 19 21 23 17 17 27 33 32 32 33 30 23 23 18 16 17 15 14 14
23 14 17 21 24 29 18 21 21 25 26 27 27 28 27 24 25 24 22 19 28 21 21 21 29 35 29 25 23 21 25 27 28 29 30 27 22 22 18 16 16 16 15
25 15 6 21 24 20 23 27 29 29 30 32 31 29 30 28 27 28 27 25 25 39 31 32 31 28 40 35 28 22 26 29 31 30 28 26 24 23 20 18 16 15 14
22 21 11 14 22 21 19 21 27 30 35 38 34 35 38 32 30 32 35 33 32 34 48 42 35 34 30 42 34 29 28 34 33 31 28 26 24 23 21 20 18 18 19
21 20 21 20 16 27 30 25 25 29 34 37 40 39 38 42 38 38 37 38 39 36 39 48 51 39 39 43 43 39 35 37 34 30 28 30 25 23 23 23 22 22 21
26 21 21 21 23 24 28 33 32 34 32 36 41 44 45 47 47 48 47 43 43 42 40 43 46 45 44 41 45 47 45 43 42 38 33 32 30 26 25 26 25 25 24
24 26 23 21 22 21 24 26 29 35 35 39 42 44 48 52 54 52 55 53 48 47 45 40 42 41 47 44 49 52 52 51 49 46 41 38 34 31 30 29 28 28 28
18 20 25 26 27 28 29 30 29 29 33 39 47 50 49 52 56 58 62 62 58 53 53 48 44 48 53 51 50 53 54 56 56 55 50 45 40 35 33 33 30 30 30
32 29 22 21 27 33 37 38 37 38 39 40 44 38 53 58 59 61 66 70 67 62 65 57 50 49 54 56 54 56 56 60 61 61 58 51 46 43 40 37 34 32 31
35 36 36 33 29 27 28 35 41 44 43 44 45 46 43 37 50 65 68 73 74 74 72 67 58 56 55 60 62 60 65 63 65 64 63 59 55 49 45 41 39 36 35
36 35 34 35 36 34 33 33 33 36 43 46 48 50 53 48 52 48 73 72 78 82 84 78 73 69 66 66 66 68 69 68 69 68 68 64 63 56 51 48 44 41 41
31 35 35 34 35 37 39 41 42 41 40 41 46 48 52 56 53 49 48 59 85 84 92 92 86 79 80 72 71 69 70 73 73 71 70 68 67 64 58 53 48 46 46
32 34 37 40 41 39 38 37 39 42 45 47 47 48 51 54 56 57 59 48 53 85 96 101 98 91 86 83 77 75 71 76 76 75 75 72 71 69 64 59 55 51 50
33 37 39 43 46 45 45 46 47 48 49 51 52 53 55 56 58 59 58 60 55 39 48 81 100 101 97 93 89 80 76 75 79 77 78 76 76 75 70 65 61 55 54
32 37 39 42 47 50 52 53 50 50 53 53 54 58 55 57 58 57 60 53 59 55 46 55 64 98 99 104 98 94 85 80 81 81 81 80 78 80 77 71 67 63 59
33 38 37 40 46 52 54 56 58 58 58 59 60 58 59 57 56 60 61 58 54 57 68 55 48 55 91 105 111 103 97 92 86 87 87 86 84 82 81 78 72 67 63
36 42 44 45 52 57 56 58 61 64 65 64 65 64 58 60 62 59 59 60 57 57 61 68 73 50 49 91 115 118 108 105 96 89 91 91 89 85 84 79 75 71 68
39 43 49 51 54 59 60 62 65 69 69 70 72 73 65 61 60 63 62 59 58 58 55 54 65 82 59 46 33 83 115 117 106 97 95 90 93 92 87 83 78 77 74
40 45 53 52 57 60 64 70 76 80 81 82 81 77 77 71 57 56 61 62 58 59 57 50 51 51 78 74 60 58 80 117 119 105 95 95 93 93 92 91 88 85 81
41 44 51 53 56 60 63 69 76 83 85 86 89 89 78 66 60 59 60 63 63 62 61 56 47 45 50 68 81 49 43 66 98 113 103 98 96 89 91 91 90 87 82
38 45 52 57 58 59 63 71 78 82 87 91 90 87 80 69 65 64 62 61 62 60 62 59 51 53 61 55 64 54 19 16 37 81 112 106 101 94 89 89 88 85 81
37 45 54 56 57 58 65 73 77 84 93 87 89 89 82 72 64 66 67 65 60 60 60 60 56 53 48 55 54 60 82 101 60 22 69 109 112 101 91 88 87 85 81
39 50 54 55 55 60 67 71 78 84 84 88 86 88 84 79 74 68 65 65 65 60 60 59 59 55 53 62 62 59 60 74 94 74 51 79 107 107 96 89 87 84 80
44 52 53 57 59 63 68 72 75 80 84 88 90 89 88 85 81 75 70 67 64 60 58 61 60 61 63 63 64 64 67 56 68 82 63 64 93 110 105 97 96 89 82
Wind_Direction_850mb
353 354 339 342 302 280 266 259 263 251 257 263 274 287 289 291 283 260 232 283 292 243 279 204 206 201 221 214 218 223 216 211 210 219 225 220 225 184 165 151 142 140 131
345 7 8 357 355 306 283 269 272 271 264 271 277 282 285 287 280 268 226 213 238 244 245 198 218 200 223 224 219 240 232 230 229 240 232 230 211 184 168 159 152 143 143
5 14 6 356 341 328 291 275 269 271 280 280 285 283 282 280 276 269 255 214 200 220 208 230 222 236 232 237 236 238 234 230 230 236 234 234 195 176 168 173 166 159 158
355 12 343 339 343 351 310 287 275 274 279 282 286 285 279 286 279 269 264 240 208 221 222 231 248 251 238 230 240 253 224 217 223 213 212 204 190 180 187 184 183 180 181
342 341 349 314 327 335 335 336 300 284 279 283 287 282 274 286 283 278 276 263 235 215 226 241 245 251 231 225 236 241 217 209 205 192 192 191 192 192 203 203 202 200 195
333 330 302 259 275 307 312 313 312 310 296 285 281 282 271 276 279 280 283 272 265 244 230 230 247 251 242 221 221 228 212 206 208 202 203 199 200 202 212 216 213 211 210
310 307 309 296 260 264 270 277 291 292 296 290 282 278 276 272 277 274 280 277 273 267 249 238 243 244 255 223 218 221 216 215 217 216 211 210 209 211 220 224 222 219 217
296 287 276 288 280 272 268 269 269 276 281 287 286 280 274 270 273 274 274 274 275 273 268 258 231 236 245 230 223 218 220 221 224 226 222 219 217 217 226 231 228 228 225
292 278 276 273 277 281 277 276 274 272 270 275 276 275 275 274 272 269 268 270 270 273 273 266 244 234 243 244 223 219 220 224 228 230 231 230 228 221 229 235 232 232 231
329 300 285 282 282 286 290 289 293 292 274 271 276 265 265 267 270 268 265 261 264 269 271 269 257 237 242 247 231 224 222 223 226 227 233 234 233 230 230 238 235 234 237
34 25 4 327 301 293 293 295 294 291 288 295 284 285 267 264 266 266 264 261 260 261 266 264 258 255 239 242 246 229 226 225 226 227 229 232 234 233 232 232 235 234 235
21 17 14 15 10 354 328 304 297 294 294 295 295 296 283 277 279 269 265 262 262 260 259 262 256 256 247 242 240 241 229 228 229 229 230 233 236 235 234 232 233 233 232
15 16 12 8 4 359 353 345 333 312 299 295 294 293 294 294 287 294 277 259 259 258 258 254 256 258 254 255 251 242 235 231 232 231 232 232 234 236 236 234 233 235 232
4 3 4 2 359 356 354 351 346 337 331 316 304 302 296 293 296 290 277 279 257 256 257 254 252 247 254 257 262 261 245 236 235 234 233 232 233 234 234 236 232 235 235
352 352 353 353 351 348 346 342 340 339 336 331 323 314 305 297 296 291 281 291 266 262 259 256 254 253 250 251 255 259 257 244 239 236 236 234 235 235 233 234 235 234 237
342 342 342 344 343 343 342 338 334 332 333 331 325 318 312 306 299 294 290 287 281 252 250 251 256 256 251 249 252 252 257 251 244 240 239 237 236 236 234 233 234 233 236
335 332 333 336 338 336 335 333 331 328 326 324 323 321 316 304 302 298 294 287 276 277 268 252 247 256 261 250 250 249 251 253 250 245 241 239 237 237 235 233 233 233 235
331 330 328 332 339 336 330 329 328 327 325 322 320 316 314 309 298 295 295 292 286 280 274 273 281 261 251 260 253 252 249 249 249 249 245 241 238 237 236 235 233 232 234
336 335 331 324 329 332 328 326 325 323 323 322 322 321 316 311 304 298 294 292 292 288 284 274 272 284 255 252 253 252 251 249 247 247 247 243 239 237 238 236 234 232 233
336 334 333 325 325 326 325 323 320 320 321 322 322 321 318 314 305 299 296 296 294 294 286 284 278 262 283 246 257 249 252 251 247 246 245 245 243 239 237 238 236 234 234
328 329 328 323 324 323 323 322 321 323 323 322 321 320 319 317 308 299 296 295 295 295 295 291 289 279 257 264 286 271 247 248 248 243 245 243 241 240 239 239 238 237 237
318 322 324 322 317 319 320 318 319 319 319 318 321 322 322 318 312 305 303 301 296 293 291 291 290 281 275 255 260 273 258 232 239 242 239 240 240 240 239 240 240 239 237
311 313 321 322 316 317 315 316 316 316 317 320 320 318 317 314 309 306 303 299 297 291 288 287 283 275 281 271 262 254 282 249 239 239 238 236 237 237 238 237 238 239 237
309 314 319 320 317 317 316 316 317 316 316 316 314 314 313 312 309 307 307 304 298 293 287 284 281 277 271 273 276 261 256 254 272 293 236 234 232 234 235 235 234 235 234
308 317 318 319 317 316 316 317 317 314 313 312 312 311 310 309 307 305 304 303 301 296 289 283 282 274 261 260 261 262 257 255 254 257 267 228 226 228 230 234 233 231 228
311 314 316 318 319 318 318 319 318 315 315 313 313 309 307 306 306 305 305 302 302 296 285 282 281 276 268 263 259 261 259 253 253 243 258 231 221 220 222 226 230 229 226